Location: Unspecified
(43.4680°N, 87.1740°E)
Time: 20:53:09
(UTC+00:00)

SME Rocket - Pass Details

Date: 17 April 2021
Orbit: 550 x 2651 km, 99.9° (Epoch: 11 May)

Event Time Altitude Azimuth Distance (km) Brightness Sun altitude
Rises 13:27:10 0° 17° (NNE) 2,739 6.4 -6.1°
Reaches altitude 10° 13:29:07 10° 20° (NNE) 1,873 5.6 -6.4°
Maximum altitude 13:32:58 74° 105° (ESE) 668 3.1 -7.0°
Drops below altitude 10° 13:37:50 10° 191° (S) 2,361 5.9 -7.9°
Sets 13:40:33 0° 193° (SSW) 3,535 6.8 -8.3°
